Tracking 30701 objects as of 14-Jun-2025
HD Live streaming from Space Station
objects crossing your sky now

STARLINK-31790

Track STARLINK-31790 now!
10-day predictions
STARLINK-31790 is classified as:


NORAD ID: 59648
Int'l Code: 2024-082T
Perigee: 433.5 km
Apogee: 436.3 km
Inclination: 43.0 °
Period: 93.1 minutes
Semi major axis: 6805 km
RCS: Unknown
Launch date: May 3, 2024
Source: United States (US)
Launch site: AIR FORCE EASTERN TEST RANGE (AFETR)
Your satellite tracking list
Your tracking list is empty




NASA's NSSDC Master Catalog

Two Line Element Set (TLE):
1 59648U 24082T   25165.35717616 -.00022530  00000-0 -44215-3 0  9996
2 59648  42.9996 155.9050 0002049 161.6496 198.4436 15.46227518 64439
Source of the keplerian elements: AFSPC